[[{"header":{"parameterUnit":"m.s-1","parameterCategory":1,"la1":30.2991,"la2":30.254,"lo1":-89.0895,"lo2":-89.0444,"dy":0.0017,"dx":0.0017,"nx":28,"ny":28,"refTime":"2025-04-21T09:00:00:Z","depth":0,"parameterNumber":2,"parameterNumberName":"U-component_of_WINDS"},"data":[0,0,0,0,0,0,0,0,0,0,0,0,0,0,0,0,0,0,0,0,0,0,0,0,0,0,0,0,0,0,0,0,0,0,0,0,0,0,0,0,0,0,0,0,0,0,0,0,0,0,0,0,0,0,0,0,0,0,-1.7402,-1.7402,0,-1.743,-1.7431,-1.7431,-1.741,-1.7409,-1.7408,-1.7407,-1.7437,-1.7439,-1.744,0,0,0,0,0,0,0,0,0,0,0,0,0,-1.7332,-1.7333,-1.7402,-1.7402,-1.7403,-1.743,-1.7431,-1.7431,-1.741,-1.7409,-1.7407,-1.7406,-1.7437,-1.7438,-1.7441,0,0,0,0,0,0,0,0,0,0,0,0,0,-1.7361,-1.7333,-1.7402,-1.7395,-1.7395,-1.743,-1.7431,-1.7431,-1.741,-1.7408,-1.7407,-1.7406,-1.7436,-1.7438,-1.7441,-1.7485,0,0,-1.7449,-1.745,0,0,0,0,0,0,0,0,-1.736,-1.7364,-1.7396,-1.7396,-1.7396,-1.7415,-1.7417,-1.7449,-1.741,-1.7404,-1.7407,-1.7405,-1.7431,-1.7434,-1.7442,-1.7486,-1.7487,-1.7449,-1.745,-1.7451,-1.7452,0,0,0,0,0,0,0,-1.7358,-1.7363,-1.7413,-1.7396,-1.7396,-1.7392,-1.7394,-1.7423,-1.7425,-1.7405,-1.7403,-1.7407,-1.7431,-1.744,-1.7443,-1.7488,-1.7449,-1.7451,-1.7452,-1.7453,-1.757,-1.7572,0,0,0,0,0,0,-1.7356,-1.7361,-1.7412,-1.7414,-1.7374,-1.7394,-1.7397,-1.741,-1.7425,-1.7426,-1.7408,-1.7406,-1.7436,-1.744,-1.7444,-1.7497,-1.7451,-1.7454,-1.7455,-1.7569,-1.7571,-1.7573,0,0,0,0,0,0,-1.7355,-1.7361,-1.7411,-1.7387,-1.7393,-1.7397,-1.7412,-1.7412,-1.7421,-1.7427,-1.7428,-1.7417,-1.7435,-1.744,-1.7475,-1.7498,-1.7455,-1.7457,-1.7567,-1.757,-1.7572,-1.7603,0,0,0,0,0,0,-1.7353,-1.736,-1.7376,-1.7388,-1.7395,-1.7441,-1.7413,-1.7413,-1.7425,-1.7422,-1.7436,-1.7437,-1.7435,-1.7471,-1.7477,-1.75,-1.7459,-1.7565,-1.7568,-1.7571,-1.76,-1.7606,-1.7612,0,0,0,0,0,-1.735,-1.7384,-1.7377,-1.7384,-1.7415,-1.7443,-1.7447,-1.7443,-1.7427,-1.7444,-1.7448,-1.7436,-1.7494,-1.7475,-1.7482,-1.7506,-1.7564,-1.7567,-1.7571,-1.7597,-1.7605,-1.7611,0,0,0,0,0,0,-1.7376,-1.7385,-1.7378,-1.7417,-1.7429,-1.7439,-1.746,-1.7451,-1.7469,-1.7465,-1.7461,-1.7464,-1.7501,-1.7507,-1.7485,-1.755,-1.7526,-1.7531,-1.7544,-1.7552,-1.7557,-1.7555,-1.7461,0,0,0,0,0,-1.7386,-1.7407,-1.7415,-1.7448,-1.7455,-1.7456,-1.7468,-1.7465,-1.7477,-1.7483,-1.7489,-1.7503,-1.7524,-1.7538,-1.7558,-1.7601,-1.7604,-1.7621,-1.7627,-1.7631,-1.7636,-1.766,-1.7668,-1.7584,-1.7584,-1.7584,0,0,-1.7407,-1.7415,-1.7429,-1.7453,-1.7462,-1.7485,-1.7461,-1.7486,-1.7503,-1.7486,-1.752,-1.7525,-1.754,-1.7579,-1.7597,-1.7585,-1.766,-1.7636,-1.764,-1.7642,-1.7665,-1.7673,-1.768,-1.7587,-1.7586,-1.7586,0,0,-1.7457,-1.7465,-1.7494,-1.7504,-1.7518,-1.7519,-1.7526,-1.7538,-1.7541,-1.7574,-1.7563,-1.7583,-1.762,-1.7631,-1.7642,-1.7698,-1.7688,-1.7704,-1.7734,-1.7758,-1.7765,-1.7771,-1.7792,-1.7799,-1.7709,-1.7709,-1.7709,0,-1.7482,-1.7515,-1.751,-1.7536,-1.7548,-1.7534,-1.7564,-1.7574,-1.7594,-1.7603,-1.759,-1.7636,-1.7645,-1.7687,-1.7701,-1.771,-1.7719,-1.7703,-1.7764,-1.777,-1.7775,-1.7795,-1.7803,-1.7711,-1.771,-1.771,-1.771,0,-1.7545,-1.7569,-1.7591,-1.761,-1.7625,-1.7653,-1.7653,-1.7668,-1.7663,-1.7666,-1.7701,-1.7711,-1.7734,-1.7743,-1.7739,-1.7785,-1.7778,-1.7765,-1.7741,-1.7785,-1.7804,-1.7812,-1.7713,-1.7713,-1.7712,-1.7712,0,0,-1.7612,-1.7629,-1.7638,-1.7647,-1.7662,-1.768,-1.7708,-1.773,-1.7743,-1.7758,-1.7782,-1.7814,-1.7802,-1.7814,-1.7811,-1.7832,-1.7877,-1.7816,-1.7816,-1.7827,-1.793,-1.794,-1.7949,-1.787,-1.7872,-1.7873,-1.7929,0,-1.7664,-1.7712,-1.7709,-1.7754,-1.7777,-1.7764,-1.7789,-1.7801,-1.7805,-1.7825,-1.7829,-1.7852,-1.7834,-1.7841,-1.7861,-1.7867,-1.7897,-1.7863,-1.7893,-1.7894,-1.789,-1.7958,-1.7969,-1.8022,-1.7936,-1.7937,-1.7938,0,-1.773,-1.7747,-1.7795,-1.7808,-1.7817,-1.7839,-1.7859,-1.7878,-1.7893,-1.7894,-1.7908,-1.7902,-1.7931,-1.7907,-1.7948,-1.7924,-1.7937,-1.7941,-1.7943,-1.7946,-1.7919,-1.7964,-1.8038,-1.8046,-1.7949,-1.7948,-1.7948,0,-1.7776,-1.781,-1.7844,-1.7852,-1.7867,-1.7883,-1.789,-1.7903,-1.7917,-1.7935,-1.7944,-1.7965,-1.7976,-1.7993,-1.7993,-1.7975,-1.8035,-1.8011,-1.8038,-1.8038,-1.8051,-1.8051,-1.8129,-1.8058,-1.8058,-1.8058,-1.8058,0,-1.7834,-1.7864,-1.7864,-1.7885,-1.7918,-1.7915,-1.7949,-1.7954,-1.7966,-1.7988,-1.7979,-1.8,-1.7999,-1.802,-1.8021,-1.8055,-1.806,-1.8063,-1.8063,-1.8064,-1.8064,-1.8072,-1.8069,-1.806,-1.806,-1.8059,-1.8059,0,-1.789,-1.7891,-1.7927,-1.7939,-1.7942,-1.7967,-1.7977,-1.7997,-1.8,-1.8029,-1.8035,-1.804,-1.8065,-1.8067,-1.8096,-1.8097,-1.8139,-1.8134,-1.8134,-1.8133,-1.8161,-1.8159,-1.8248,-1.826,-1.8181,-1.8182,-1.8182,0,-1.7928,-1.795,-1.7965,-1.7979,-1.7987,-1.8009,-1.8023,-1.8021,-1.8036,-1.8055,-1.8073,-1.8097,-1.8116,-1.8158,-1.8164,-1.8187,-1.8183,-1.8213,-1.8187,-1.8188,-1.8185,-1.8184,-1.8186,-1.8218,-1.8219,-1.822,-1.8221,0,-1.7994,-1.7994,-1.8014,-1.8034,-1.8051,-1.8067,-1.8082,-1.8095,-1.8094,-1.8112,-1.8138,-1.8153,-1.8183,-1.8207,-1.8229,-1.8238,-1.823,-1.8229,-1.8237,-1.8239,-1.8238,-1.8239,-1.8149,-1.8227,-1.8226,-1.8226,-1.8225,-1.8225,-1.8043,-1.8063,-1.8076,-1.8099,-1.811,-1.8125,-1.8145,-1.815,-1.8171,-1.8195,-1.8193,-1.8222,-1.8236,-1.8265,-1.8276,-1.8299,-1.8289,-1.8299,-1.8302,-1.8305,-1.8309,-1.8234,-1.8303,-1.8302,-1.8302,-1.8302,-1.8302,0,-1.811,-1.8118,-1.8139,-1.816,-1.8179,-1.8169,-1.8186,-1.8202,-1.8227,-1.8241,-1.8261,-1.8291,-1.8315,-1.8324,-1.8347,-1.8364,-1.8361,-1.837,-1.837,-1.8372,-1.8316,-1.8307,-1.8373,-1.8373,-1.8373,-1.8372,-1.8372,-1.8372,-1.8147,-1.8181,-1.8182,-1.8222,-1.823,-1.8258,-1.8268,-1.8282,-1.8293,-1.8327,-1.8347,-1.8352,-1.8365,-1.839,-1.8412,-1.8414,-1.8423,-1.8435,-1.8435,-1.8383,-1.8376,-1.8369,-1.8361,-1.8436,-1.8436,-1.8489,-1.849,-1.849]},{"header":{"parameterUnit":"m.s-1","parameterCategory":1,"la1":30.2991,"la2":30.254,"lo1":-89.0895,"lo2":-89.0444,"dy":0.0017,"dx":0.0017,"nx":28,"ny":28,"refTime":"2025-04-21T09:00:00:Z","depth":0,"parameterNumber":3,"parameterNumberName":"V-component_of_WINDS"},"data":[0,0,0,0,0,0,0,0,0,0,0,0,0,0,0,0,0,0,0,0,0,0,0,0,0,0,0,0,0,0,0,0,0,0,0,0,0,0,0,0,0,0,0,0,0,0,0,0,0,0,0,0,0,0,0,0,0,0,4.3085,4.3085,0,4.3097,4.3097,4.3098,4.3056,4.3055,4.3054,4.3053,4.3063,4.3065,4.3066,0,0,0,0,0,0,0,0,0,0,0,0,0,4.3023,4.3024,4.3085,4.3085,4.3085,4.3097,4.3097,4.3098,4.3056,4.3055,4.3053,4.3052,4.3063,4.3065,4.3066,0,0,0,0,0,0,0,0,0,0,0,0,0,4.3044,4.3025,4.3085,4.3066,4.3064,4.3097,4.3097,4.3098,4.3057,4.3055,4.3053,4.3051,4.3062,4.3064,4.3067,4.3117,0,0,4.3073,4.3074,0,0,0,0,0,0,0,0,4.3043,4.3046,4.3068,4.3067,4.3066,4.3073,4.308,4.3104,4.3057,4.306,4.3053,4.305,4.3068,4.307,4.3076,4.3118,4.3118,4.3073,4.3075,4.3076,4.3076,0,0,0,0,0,0,0,4.3042,4.3046,4.309,4.3069,4.3067,4.3056,4.3057,4.3084,4.3074,4.3059,4.3056,4.3058,4.3067,4.3074,4.3076,4.3119,4.3073,4.3075,4.3077,4.3078,4.3203,4.3205,0,0,0,0,0,0,4.3043,4.3045,4.3089,4.309,4.305,4.3059,4.306,4.3073,4.3074,4.3072,4.306,4.3056,4.3071,4.3074,4.3076,4.3136,4.3076,4.3078,4.3079,4.3201,4.3204,4.3206,0,0,0,0,0,0,4.3042,4.3047,4.3089,4.3067,4.3071,4.3062,4.3077,4.3074,4.3081,4.3074,4.3072,4.3069,4.307,4.3073,4.3108,4.3136,4.3079,4.3081,4.3199,4.3202,4.3205,4.3256,0,0,0,0,0,0,4.304,4.3047,4.3067,4.3067,4.3072,4.3121,4.3078,4.3076,4.3085,4.3081,4.3082,4.3081,4.3069,4.3105,4.311,4.3138,4.3082,4.3196,4.32,4.3204,4.3252,4.3261,4.3268,0,0,0,0,0,4.3038,4.308,4.3068,4.3073,4.3097,4.3122,4.3125,4.3111,4.3088,4.3107,4.3103,4.3081,4.3132,4.3109,4.3114,4.3143,4.3195,4.3199,4.3204,4.3248,4.3259,4.3268,0,0,0,0,0,0,4.3081,4.3079,4.3066,4.3109,4.3117,4.3115,4.3139,4.3122,4.3135,4.313,4.3111,4.3112,4.315,4.315,4.3124,4.3193,4.3159,4.3165,4.3191,4.3202,4.3209,4.3209,4.3084,0,0,0,0,0,4.3096,4.3118,4.3115,4.3153,4.3158,4.3148,4.3158,4.3147,4.3153,4.3156,4.3154,4.316,4.3178,4.319,4.3205,4.3252,4.3252,4.3275,4.3283,4.329,4.3295,4.332,4.333,4.3221,4.3221,4.3221,0,0,4.3126,4.3128,4.3143,4.3162,4.3166,4.3188,4.3151,4.3176,4.3192,4.3159,4.3192,4.3191,4.3197,4.3238,4.3256,4.3239,4.3325,4.3295,4.3301,4.3302,4.3326,4.3336,4.3345,4.3224,4.3224,4.3223,0,0,4.3193,4.3197,4.323,4.3235,4.3242,4.3236,4.3244,4.3245,4.3244,4.3277,4.3253,4.3272,4.3302,4.3308,4.3314,4.3385,4.3365,4.3391,4.3432,4.3457,4.3466,4.3473,4.3499,4.3508,4.3396,4.3396,4.3396,0,4.323,4.3263,4.3248,4.3276,4.3285,4.3258,4.3291,4.3296,4.3308,4.3315,4.3296,4.3334,4.3336,4.3378,4.3396,4.3402,4.341,4.339,4.3466,4.3473,4.348,4.3504,4.3514,4.3399,4.3399,4.3398,4.3398,0,4.3308,4.3332,4.3357,4.3371,4.3383,4.3413,4.3402,4.3416,4.3404,4.34,4.3434,4.3435,4.3451,4.346,4.3448,4.3501,4.3491,4.3469,4.3435,4.3494,4.3516,4.3525,4.3403,4.3402,4.3401,4.3401,0,0,4.3401,4.3407,4.3417,4.3423,4.3429,4.3447,4.3476,4.3493,4.3505,4.3514,4.3538,4.3565,4.3546,4.3553,4.3542,4.3564,4.362,4.3539,4.3539,4.3554,4.3678,4.3695,4.3705,4.3607,4.3609,4.361,4.3678,0,4.3467,4.3518,4.3506,4.3555,4.3577,4.3552,4.3577,4.3584,4.3581,4.3598,4.3594,4.3614,4.3587,4.3592,4.3612,4.3609,4.3644,4.3603,4.3628,4.3629,4.3628,4.3717,4.3734,4.3798,4.3687,4.3688,4.3689,0,4.3551,4.3565,4.3617,4.3621,4.3629,4.3652,4.3667,4.3684,4.3691,4.3688,4.3697,4.3681,4.371,4.3676,4.3715,4.3687,4.3697,4.3697,4.3699,4.37,4.3663,4.3721,4.3818,4.3828,4.3703,4.3701,4.37,0,4.3614,4.3646,4.3681,4.3687,4.3692,4.3709,4.3712,4.3717,4.3728,4.3741,4.3748,4.3764,4.3772,4.3784,4.3773,4.375,4.3814,4.3779,4.3811,4.3811,4.3825,4.3824,4.3925,4.3832,4.3832,4.3831,4.3831,0,4.3689,4.3722,4.371,4.3732,4.3768,4.3754,4.379,4.379,4.3795,4.3816,4.3795,4.3815,4.3799,4.3818,4.3809,4.3843,4.3847,4.3844,4.3841,4.3846,4.3846,4.3852,4.3847,4.3834,4.3833,4.3833,4.3833,0,4.3765,4.3759,4.3796,4.3799,4.38,4.3827,4.3829,4.3849,4.3845,4.3872,4.3877,4.387,4.3891,4.3881,4.3903,4.3897,4.3941,4.3932,4.3939,4.3936,4.3969,4.3966,4.4077,4.409,4.3988,4.3989,4.399,0,4.3814,4.3839,4.3845,4.3858,4.3863,4.3884,4.3895,4.3883,4.3895,4.3906,4.3925,4.3944,4.3959,4.3994,4.399,4.4007,4.3998,4.4036,4.4001,4.4005,4.3999,4.3998,4.4,4.4043,4.4044,4.4045,4.4046,0,4.39,4.3896,4.3914,4.3931,4.3946,4.3959,4.397,4.3981,4.3969,4.3984,4.4006,4.4018,4.4041,4.406,4.4075,4.4077,4.406,4.4057,4.4066,4.407,4.4073,4.4072,4.3958,4.4055,4.4054,4.4053,4.4053,4.4052,4.3964,4.3985,4.3993,4.4014,4.4021,4.4032,4.4052,4.4051,4.4069,4.4087,4.4078,4.4104,4.411,4.4129,4.4133,4.4153,4.4138,4.415,4.4153,4.4156,4.416,4.4071,4.4155,4.4155,4.4155,4.4154,4.4154,0,4.4049,4.4054,4.4073,4.409,4.4107,4.409,4.4101,4.4116,4.4139,4.4147,4.4163,4.4188,4.4207,4.4206,4.4223,4.4239,4.4231,4.4244,4.4242,4.4243,4.4173,4.4164,4.425,4.425,4.425,4.425,4.425,4.425,4.4096,4.4132,4.4129,4.4168,4.4171,4.4197,4.4205,4.4215,4.4221,4.4251,4.4267,4.4266,4.4271,4.4289,4.4305,4.4304,4.4312,4.4327,4.4323,4.4258,4.4248,4.4239,4.4231,4.4329,4.4329,4.4392,4.4393,4.4393]}]]